Date,TemperatureHighF,TemperatureAvgF,TemperatureLowF,DewpointHighF,DewpointAvgF,DewpointLowF,HumidityHigh,HumidityAvg,HumidityLow,PressureMaxIn,PressureMinIn,WindSpeedMaxMPH,WindSpeedAvgMPH,GustSpeedMaxMPH,PrecipitationSumIn
2013-1-1,33.2,25.3,22.4,31.9,21.1,17.3,95,84,75,30.16,30.01,10,1,10,0.00
2013-1-2,30.5,21.3,12.6,19.5,15.4,10.0,91,79,56,30.21,30.12,1,0,3,0.02
2013-1-3,40.2,28.8,18.1,29.8,22.7,14.8,91,79,61,30.31,30.14,2,0,9,0.12
2013-1-4,40.4,31.1,22.4,26.1,23.2,20.4,92,74,51,30.36,30.23,2,0,12,0.02
2013-1-5,44.4,36.3,25.7,32.6,26.8,21.3,84,69,56,30.23,30.02,3,1,7,0.00
2013-1-6,41.9,34.0,23.7,33.2,25.6,20.0,86,72,56,30.30,30.00,4,1,13,0.00
2013-1-7,45.7,32.8,21.8,29.1,24.7,19.1,89,73,50,30.31,30.08,3,1,10,0.00
2013-1-8,54.6,44.5,29.0,36.9,31.6,24.3,83,62,34,30.12,30.00,5,1,10,0.00
2013-1-9,57.9,48.7,40.6,44.9,37.7,30.4,96,68,41,30.37,30.07,7,0,7,0.00
2013-1-10,56.1,46.6,41.2,55.7,42.6,32.4,99,87,61,30.35,29.67,9,1,9,0.57
2013-1-11,63.6,55.5,49.1,55.2,49.6,46.7,99,81,59,29.79,29.67,14,2,14,0.00
2013-1-12,58.5,47.6,31.1,52.1,42.1,29.8,96,82,54,29.84,29.70,19,1,19,0.84
2013-1-13,31.5,25.3,17.5,30.5,21.7,14.5,96,86,77,30.29,29.81,8,1,13,0.00
2013-1-14,28.2,20.8,15.0,17.1,14.1,10.8,90,76,53,30.44,30.28,6,0,6,0.01
2013-1-15,30.7,23.3,14.8,22.0,17.5,12.4,91,79,59,30.35,30.05,7,0,7,0.00
2013-1-16,43.4,30.4,18.3,24.8,20.7,16.1,92,70,43,30.08,29.94,8,0,8,0.00
2013-1-17,42.1,35.0,31.5,30.5,27.3,23.5,85,74,50,30.28,30.04,14,1,14,0.00
2013-1-28,72.8,62.3,53.5,62.5,58.1,52.1,95,86,69,29.88,29.75,4,3,12,0.00
2013-1-29,67.6,62.1,53.1,60.8,58.4,52.5,98,88,78,29.74,29.33,7,4,20,1.51
2013-1-30,52.9,39.9,28.2,52.3,36.1,19.9,98,86,68,29.82,29.26,4,3,19,0.15
2013-1-31,35.1,25.7,12.3,27.4,17.0,2.5,88,69,61,30.30,29.83,4,2,19,0.01
2013-2-1,28.8,19.5,8.7,13.1,6.0,0.7,74,56,41,30.43,30.17,3,1,13,0.02
2013-2-2,45.3,34.7,28.5,29.4,21.9,12.4,93,60,44,30.15,29.97,3,1,17,0.00
2013-2-3,35.2,31.8,27.6,29.7,22.8,16.5,96,71,49,30.10,29.94,5,1,23,0.18
2013-2-4,60.6,40.7,28.4,36.9,29.1,21.7,84,65,40,29.91,29.68,3,1,16,0.02
2013-2-5,58.3,39.4,25.1,35.6,29.8,23.1,93,71,42,30.03,29.80,3,1,15,0.00
2013-2-6,51.2,40.2,27.8,33.4,30.7,26.0,94,71,49,30.15,29.96,4,1,12,0.00
2013-2-7,55.2,44.2,37.3,47.7,38.0,31.4,96,80,60,29.96,29.75,3,1,13,0.12
2013-2-8,39.5,35.3,30.7,37.1,30.8,26.2,92,84,77,30.27,29.95,5,1,10,0.00
2013-2-9,41.9,33.7,29.5,35.7,28.3,25.6,92,81,64,30.28,29.93,12,2,12,0.18
2013-2-10,56.4,50.8,37.8,53.0,43.9,32.1,96,80,43,29.93,29.49,19,3,19,0.51
2013-2-11,51.8,42.6,32.8,33.2,27.9,25.3,75,57,40,30.05,29.68,19,2,19,0.00
2013-2-12,45.6,35.3,26.5,32.4,27.7,24.2,92,75,56,30.08,29.85,1,0,5,0.00
2013-2-13,56.3,46.8,36.6,33.8,31.0,27.3,83,56,34,29.85,29.70,10,1,10,0.00
2013-2-14,57.7,46.5,38.9,36.7,33.0,30.5,77,60,40,29.96,29.72,13,1,13,0.00
2013-2-15,41.9,35.7,29.6,30.8,20.7,12.1,79,55,34,30.18,29.96,12,1,12,0.00
2013-2-16,38.0,28.7,21.5,17.1,13.4,9.9,73,54,31,30.19,30.08,2,1,10,0.00
2013-2-17,48.0,37.3,21.8,32.1,24.5,15.4,80,61,37,30.10,29.88,10,2,14,0.00
2013-2-18,56.8,46.7,34.5,48.2,40.0,27.1,93,78,67,29.81,29.45,7,4,22,0.15
2013-2-19,37.7,30.8,24.4,25.7,16.9,10.6,77,57,37,30.21,29.82,4,2,16,0.00
2013-2-20,27.1,23.3,18.5,14.6,12.2,9.7,72,62,55,30.33,30.21,1,1,7,0.00
2013-2-21,31.5,26.2,21.7,30.2,22.0,14.5,95,84,72,30.25,29.74,17,2,17,0.00
2013-2-22,35.7,31.6,23.6,33.5,27.5,19.6,96,85,70,30.00,29.72,10,0,10,0.08
2013-2-23,37.2,26.8,16.6,22.7,19.6,14.7,92,75,52,29.98,29.90,10,0,10,0.45
2013-2-24,44.4,32.7,18.7,29.0,24.0,16.7,92,72,49,30.04,29.94,11,1,11,0.19
2013-2-25,46.7,38.3,29.6,33.4,30.4,25.7,92,74,56,29.98,29.49,13,2,13,0.22
2013-2-26,44.6,36.7,33.7,42.5,35.4,31.7,97,95,91,29.59,29.24,15,2,15,0.62
2013-2-27,35.9,33.1,31.6,33.5,31.0,28.5,95,92,88,29.81,29.58,13,2,13,0.07
2013-2-28,34.8,32.8,31.4,30.7,29.4,28.2,94,87,81,30.02,29.80,10,1,10,0.01
2013-3-1,33.7,30.9,28.9,30.3,28.2,24.4,94,90,83,30.11,29.99,9,1,9,0.09
2013-3-2,34.2,28.9,22.3,24.7,21.3,16.8,88,74,58,30.17,30.10,11,1,11,0.02
2013-3-3,38.7,30.1,17.5,26.9,20.5,14.8,92,69,46,30.14,29.94,7,1,7,0.01
2013-3-4,52.2,41.0,35.2,43.2,30.2,26.6,86,66,51,29.95,29.66,17,3,17,0.00
2013-3-5,43.4,36.6,31.6,35.7,31.1,23.5,95,81,63,29.98,29.68,21,2,21,0.19
2013-3-6,40.2,33.7,25.4,26.5,24.0,21.4,85,68,56,30.27,30.04,10,1,20,0.00
2013-3-7,46.2,34.4,22.1,31.6,26.5,20.1,93,74,51,30.33,30.21,9,1,9,0.00
2013-3-8,52.2,41.5,28.6,35.2,31.0,25.9,91,68,46,30.33,30.10,14,2,14,0.00
2013-3-9,69.4,52.7,40.1,42.7,37.0,31.7,90,58,28,30.10,29.69,21,3,21,0.29
2013-3-10,60.5,53.1,45.4,53.0,48.8,41.6,98,87,50,29.70,29.53,14,1,14,1.30
2013-3-11,45.4,36.1,33.3,44.0,32.3,26.4,95,86,72,29.91,29.62,15,1,17,0.00
2013-3-12,53.6,38.4,28.7,29.6,26.4,23.5,87,65,35,30.12,29.89,20,2,20,0.00
2013-3-13,43.2,34.5,28.3,24.5,19.9,17.1,72,56,37,30.33,30.12,16,2,17,0.00
2013-3-14,51.4,37.9,26.3,34.8,27.0,19.4,87,66,45,30.31,29.99,13,1,13,0.01
2013-3-15,71.9,52.6,31.5,50.2,40.3,29.2,93,67,36,29.99,29.55,9,1,9,0.00
2013-3-16,65.5,49.0,39.2,48.4,40.3,35.8,92,73,49,29.94,29.54,15,1,15,0.01
2013-3-17,39.3,35.6,33.1,36.0,33.2,30.2,96,91,84,30.00,29.68,11,1,11,1.11
2013-3-18,49.9,41.5,36.8,39.7,35.6,23.4,97,81,52,29.93,29.59,14,1,14,0.03
2013-3-19,49.7,38.9,29.8,24.1,18.7,12.9,74,47,24,30.12,29.93,11,1,12,0.00
2013-3-20,37.9,32.2,26.0,29.9,19.3,11.4,89,60,38,30.19,30.02,16,2,16,0.00
2013-3-21,38.7,29.6,19.5,20.9,15.3,12.1,76,56,38,30.04,29.90,7,1,7,0.00
2013-3-22,41.6,36.3,31.7,27.0,24.0,20.3,70,61,49,29.96,29.89,9,1,9,0.00
2013-3-23,52.9,44.2,37.7,36.5,28.7,21.9,76,55,39,29.95,29.72,11,1,13,0.01
2013-3-24,43.4,33.3,31.0,36.7,31.5,29.7,95,93,76,29.76,29.46,14,2,14,0.15
2013-3-25,36.6,32.0,28.7,32.8,28.6,25.6,95,88,74,30.11,29.74,15,2,15,0.37
2013-3-26,41.9,34.5,28.0,27.9,25.6,22.7,83,71,53,30.27,30.11,10,1,11,0.33
2013-3-27,48.2,36.1,23.2,30.3,26.1,21.5,94,69,42,30.31,30.20,7,0,7,0.01
2013-3-28,56.9,46.3,36.8,39.0,33.3,26.8,74,61,49,30.26,30.12,11,2,11,0.00
2013-3-29,62.9,51.3,41.1,46.6,42.9,38.1,92,74,53,30.16,30.06,9,1,9,0.01
2013-3-30,53.4,46.5,39.7,47.3,43.7,38.7,97,90,71,30.09,29.81,12,1,12,0.14
2013-3-31,70.5,56.9,47.6,52.8,44.1,34.1,97,68,28,29.83,29.74,11,1,11,0.00
2013-4-1,52.9,44.1,36.2,36.2,25.8,19.2,65,49,31,30.14,29.82,12,2,13,0.00
2013-4-2,50.3,39.2,28.3,23.6,18.8,12.5,76,46,24,30.27,30.14,8,1,8,0.00
2013-4-3,37.9,35.4,33.2,23.7,22.0,20.6,66,58,52,30.25,30.20,5,0,5,0.00
2013-4-4,61.2,47.8,32.1,29.5,25.1,20.8,79,44,23,30.15,29.93,2,1,8,0.00
2013-4-5,67.1,53.3,37.8,38.9,32.9,28.8,71,49,27,30.07,29.93,2,1,8,0.00
2013-4-6,75.0,64.7,49.3,45.3,41.6,34.6,66,44,25,29.93,29.61,13,4,20,0.00
2013-4-7,77.8,66.5,55.3,60.5,51.0,45.3,92,59,37,29.80,29.68,17,2,17,0.11
2013-4-8,79.3,69.4,61.3,61.3,57.6,54.4,85,67,51,29.75,29.60,16,3,16,0.01
2013-4-9,78.8,70.7,63.4,63.6,60.2,57.3,81,70,58,29.77,29.68,20,3,20,0.00
2013-4-10,83.5,67.6,60.2,67.0,62.9,59.3,98,85,55,29.69,29.46,15,1,18,1.02
2013-4-11,60.5,47.2,40.9,59.9,42.2,31.7,98,83,67,29.66,29.52,13,1,13,0.02
2013-4-12,46.6,42.2,36.8,33.9,32.3,30.1,81,68,57,29.93,29.64,16,1,16,0.00
2013-4-13,63.2,49.1,32.8,43.4,35.4,30.4,92,63,37,29.99,29.79,10,1,10,0.00
2013-4-14,79.5,63.5,47.4,56.0,47.7,42.0,83,59,29,29.79,29.49,21,4,23,0.00
2013-4-15,70.6,63.0,54.0,62.2,56.9,50.6,95,81,68,29.79,29.61,12,2,13,0.02
2013-4-16,54.2,47.9,44.9,50.7,46.1,43.8,97,94,85,30.04,29.77,11,1,11,0.62
2013-4-17,84.7,64.9,48.3,69.0,57.9,46.5,98,80,52,30.02,29.56,16,3,16,0.01
2013-4-18,76.2,59.9,41.7,67.5,56.0,34.6,99,88,71,29.67,29.45,17,3,17,2.34
2013-4-19,53.9,43.8,37.2,34.9,29.1,24.9,77,58,35,29.98,29.66,21,2,21,0.00
2013-4-20,57.2,45.3,31.5,35.6,29.7,25.0,94,58,32,30.23,29.97,10,1,10,0.00
2013-4-21,62.9,52.4,42.0,42.4,36.9,32.2,70,56,44,30.32,30.13,12,2,12,0.00
2013-4-22,72.5,59.0,41.5,47.8,40.8,35.6,85,53,31,30.17,29.86,14,2,14,0.00
2013-4-23,61.6,51.6,39.9,56.1,47.9,38.8,97,88,61,29.93,29.75,11,1,11,1.08
2013-4-24,55.9,44.8,37.5,39.0,34.3,26.3,96,71,34,30.16,29.89,11,1,11,0.10
2013-4-25,66.0,51.1,34.7,38.8,33.9,28.3,93,56,29,30.26,30.14,12,1,12,0.00
2013-4-26,58.2,52.5,45.6,49.7,44.4,37.6,88,74,57,30.28,30.15,12,1,12,0.01
2013-4-27,54.1,51.2,48.5,53.5,50.1,45.9,98,96,87,30.18,29.83,8,0,8,0.48
2013-4-28,58.2,52.6,51.5,53.8,51.7,51.1,99,97,82,29.87,29.79,10,1,10,0.01
2013-4-29,79.4,62.3,45.4,61.5,54.6,44.9,98,79,49,29.84,29.67,4,2,14,0.00
2013-4-30,87.9,73.7,59.5,62.9,57.7,47.8,92,62,26,29.82,29.69,5,2,15,0.00
2013-5-1,83.9,71.8,57.6,61.3,57.8,52.1,92,64,39,29.95,29.82,3,1,10,0.00
2013-5-2,72.4,60.5,45.0,61.6,55.5,43.9,97,85,58,30.04,29.94,2,1,9,0.49
2013-5-3,45.2,41.2,39.6,44.1,40.5,38.8,98,97,96,29.99,29.72,8,0,8,2.11
2013-5-4,52.2,44.6,39.2,44.2,40.4,38.2,98,86,59,29.91,29.75,8,0,8,0.01
2013-5-5,60.9,52.3,42.4,57.8,50.6,41.2,98,94,85,29.90,29.78,6,0,6,0.10
2013-5-6,67.5,60.3,52.6,57.1,54.1,50.7,96,81,62,29.87,29.80,9,1,9,0.00
2013-5-7,76.2,64.5,55.9,60.8,56.4,53.2,97,78,47,29.92,29.85,3,0,7,0.00
2013-5-8,84.6,66.6,52.7,61.6,55.3,48.9,98,72,32,29.93,29.84,10,0,10,0.00
2013-5-9,77.7,68.3,62.5,65.9,61.0,58.2,95,78,54,29.87,29.71,13,1,13,0.07
2013-5-10,69.0,62.0,56.6,61.6,58.0,51.8,98,87,71,29.89,29.71,8,0,8,0.09
2013-5-11,82.0,61.4,48.7,58.2,46.2,32.9,95,62,30,30.05,29.87,14,0,14,0.01
2013-5-12,64.8,52.3,38.6,38.4,32.6,25.1,89,52,25,30.13,30.03,12,0,12,0.00
2013-5-13,74.5,57.4,38.3,47.3,40.5,32.4,96,60,29,30.14,29.92,8,0,8,0.00
2013-5-14,94.6,76.1,55.9,58.9,52.7,46.7,82,49,25,29.92,29.68,13,1,13,0.00
2013-5-15,92.7,79.6,68.6,66.0,59.6,51.3,74,51,35,29.82,29.68,11,1,11,0.00
2013-5-16,74.5,74.3,74.1,65.3,65.3,65.1,74,73,73,29.76,29.75,1,0,1,0.00
2013-5-17,77.6,71.0,63.4,69.2,65.4,59.5,94,83,69,29.84,29.78,6,0,6,0.29
2013-5-18,82.5,71.6,61.8,68.0,65.2,61.2,99,82,60,29.89,29.74,8,0,8,0.00
2013-5-19,89.8,78.9,68.7,76.0,69.4,64.7,91,74,52,29.78,29.57,13,1,13,0.00
2013-5-20,79.5,71.6,62.0,71.0,66.7,60.5,97,85,69,29.79,29.56,22,1,22,1.15
2013-5-21,75.3,75.3,75.3,63.6,63.6,62.3,67,67,67,29.62,29.59,0,0,7,0.04
2013-5-22,76.8,68.4,61.5,62.6,59.2,55.5,96,74,52,29.76,29.55,2,1,14,0.00
2013-5-23,65.5,61.5,55.8,61.0,55.4,50.2,94,81,66,30.11,29.76,16,0,16,0.01
2013-5-24,71.8,57.7,46.2,51.2,43.2,35.0,96,63,30,30.29,30.11,6,0,6,0.01
2013-5-25,68.5,59.7,47.4,58.5,51.9,44.7,94,76,56,30.24,30.01,11,0,11,0.07
2013-5-26,84.3,70.8,56.9,69.4,61.0,52.6,87,72,58,30.07,29.87,10,1,10,0.00
2013-5-27,83.5,71.8,64.9,73.8,65.2,60.5,97,81,65,29.89,29.62,11,0,11,0.62
2013-5-28,85.3,74.5,67.3,73.0,67.6,64.0,94,80,59,29.78,29.67,12,0,12,0.04
2013-5-29,87.5,77.6,67.6,71.1,66.1,62.8,90,69,51,29.83,29.69,13,1,13,0.00
2013-5-30,82.2,74.7,64.2,73.2,68.5,63.3,97,82,67,29.79,29.67,23,1,23,0.83
2013-5-31,80.1,70.2,63.5,72.7,67.2,62.9,99,91,77,29.77,29.60,13,1,13,1.49
2013-6-1,78.5,68.1,61.6,69.0,64.2,58.0,99,88,62,29.77,29.60,11,1,11,0.26
2013-6-2,67.5,63.5,59.1,60.6,57.9,54.2,89,82,73,29.91,29.77,7,0,7,0.00
2013-6-3,72.8,63.2,56.6,55.6,53.1,47.6,91,71,47,29.99,29.86,6,0,6,0.00
2013-6-4,76.6,64.3,51.8,60.7,55.9,50.2,96,76,53,29.98,29.88,8,0,8,0.00
2013-6-5,83.2,68.0,58.0,66.5,61.7,56.9,98,82,45,29.90,29.73,4,0,4,0.06
2013-6-6,79.7,69.0,62.3,65.8,61.6,55.8,98,79,54,29.75,29.70,9,0,9,0.00
2013-6-7,77.7,65.5,56.4,62.1,58.2,54.9,96,79,54,29.80,29.74,7,0,7,0.00
2013-6-8,81.0,68.0,55.2,62.3,57.7,54.6,98,73,43,29.86,29.78,8,0,8,0.00
2013-6-9,77.6,66.6,61.4,66.3,62.2,59.6,98,86,65,29.83,29.67,14,0,14,0.17
2013-6-10,81.6,69.3,61.4,66.4,63.2,60.8,99,83,56,29.79,29.66,8,0,8,0.07
2013-6-11,93.1,76.1,59.7,77.3,68.7,59.1,99,80,49,29.85,29.73,5,0,12,0.00
2013-6-12,95.6,84.4,71.4,76.2,72.8,68.6,93,70,50,29.83,29.61,4,1,20,0.00
2013-6-13,84.5,75.0,65.9,72.3,65.4,59.6,89,73,57,29.86,29.62,15,0,15,0.00
2013-6-14,84.2,71.6,60.4,66.2,61.8,59.0,97,73,49,29.97,29.82,7,0,7,0.00
2013-6-15,89.5,75.2,66.7,73.9,67.2,62.5,98,78,54,29.98,29.80,7,0,7,0.12
2013-6-16,85.2,74.0,67.6,75.8,71.1,67.0,99,91,69,29.91,29.78,7,0,7,0.33
2013-6-17,85.3,72.4,65.2,76.4,69.7,63.5,99,92,63,29.85,29.73,11,0,11,0.95
2013-6-18,90.0,74.1,62.0,73.6,65.6,60.8,100,78,42,29.85,29.78,6,0,6,0.00
2013-6-19,86.9,72.7,62.4,71.2,65.6,61.4,98,80,48,29.94,29.84,4,0,4,0.00
2013-6-20,90.0,77.8,64.8,72.6,68.7,64.1,98,76,51,29.99,29.91,9,0,9,0.00
2013-6-21,91.8,81.1,70.6,76.2,72.6,69.0,96,76,58,29.98,29.86,7,0,8,0.00
2013-6-22,90.0,75.5,67.4,77.7,70.5,65.4,95,85,62,29.96,29.88,9,0,9,0.26
2013-6-23,88.0,74.0,67.4,76.3,69.0,64.9,98,85,64,29.93,29.82,1,0,11,0.94
2013-6-24,91.0,78.1,66.9,79.1,71.9,66.4,99,83,56,29.96,29.80,7,0,7,0.00
2013-6-25,93.1,82.5,73.9,78.2,73.9,70.3,91,76,56,29.84,29.66,9,0,9,0.00
2013-6-26,93.2,78.8,73.6,79.4,74.4,71.5,99,87,61,29.74,29.59,9,0,9,0.38
2013-6-27,95.0,80.2,69.7,76.3,72.5,68.5,100,80,44,29.77,29.63,9,0,9,0.00
2013-6-28,89.9,79.4,70.7,73.9,67.3,57.7,98,70,37,29.73,29.58,15,0,15,0.02
2013-6-29,83.3,70.9,63.5,70.2,63.5,60.8,97,78,54,29.61,29.53,12,0,12,0.26
2013-6-30,76.8,68.3,64.8,68.1,64.0,60.9,96,86,71,29.79,29.61,6,0,6,0.10
2013-7-1,79.2,71.6,63.2,64.2,57.7,53.2,93,63,46,29.85,29.78,8,0,8,0.00
2013-7-2,71.3,63.6,60.4,62.3,60.1,55.7,99,90,58,29.93,29.81,6,0,6,0.68
2013-7-3,83.0,69.2,61.3,67.8,62.8,59.8,100,82,53,29.98,29.89,5,0,5,0.01
2013-7-4,84.7,72.0,60.2,67.9,62.7,59.3,98,75,47,29.97,29.87,6,0,6,0.00
2013-7-5,83.9,73.4,63.7,70.9,66.8,63.1,99,81,58,29.96,29.87,7,0,7,0.00
2013-7-6,88.2,75.2,66.7,72.4,66.9,60.5,98,78,49,29.93,29.83,6,0,7,0.00
2013-7-7,91.0,78.3,65.4,75.7,69.6,63.7,95,76,54,29.93,29.85,7,0,7,0.00
2013-7-8,92.5,80.9,70.8,78.5,73.4,68.1,92,79,59,29.97,29.88,5,0,7,0.00
2013-7-9,94.3,83.5,74.4,79.9,74.8,71.2,93,76,56,29.92,29.79,4,0,8,0.00
2013-7-10,87.3,78.0,71.2,78.7,73.7,68.0,96,87,73,29.87,29.77,8,0,8,0.32
2013-7-11,85.3,75.0,64.7,68.4,63.4,59.5,97,70,44,29.93,29.85,5,0,5,0.00
2013-7-12,85.6,72.0,61.1,63.5,60.6,56.1,97,71,38,30.00,29.91,5,0,5,0.00
2013-7-13,86.0,73.1,59.7,67.2,62.2,58.6,97,71,46,29.98,29.89,5,0,5,0.00
2013-7-14,88.0,76.1,65.8,72.5,68.1,63.4,93,78,56,30.02,29.92,11,0,11,0.00
2013-7-15,90.6,80.0,71.3,75.9,73.4,70.1,98,81,61,30.10,30.00,7,0,7,0.00
2013-7-16,91.9,81.3,72.6,76.2,73.3,71.2,97,78,55,30.17,30.08,7,0,7,0.00
2013-7-17,94.1,81.5,72.4,79.2,74.4,71.5,98,80,55,30.20,30.05,4,0,4,0.00
2013-7-18,96.3,83.1,73.2,77.5,74.6,71.0,98,78,47,30.08,29.89,5,0,5,0.00
2013-7-19,95.0,82.5,73.5,78.3,74.0,70.8,93,77,54,29.90,29.74,8,0,8,0.00
2013-7-20,78.4,77.4,76.2,72.2,71.6,71.2,85,82,80,29.78,29.75,2,0,2,0.00
2013-7-21,81.1,74.8,70.8,75.0,72.0,70.2,98,91,76,29.82,29.71,0,0,4,0.01
2013-7-22,92.2,79.3,69.4,75.1,72.4,68.6,98,81,53,29.75,29.64,1,0,8,0.00
2013-7-23,92.7,81.4,73.7,76.2,71.5,66.9,93,73,53,29.77,29.61,3,0,7,0.00
2013-7-24,82.8,74.6,63.8,67.2,58.3,54.5,83,58,43,29.91,29.77,5,0,5,0.00
2013-7-25,84.0,70.6,58.7,63.1,59.3,56.5,96,70,42,30.00,29.90,4,0,4,0.00
2013-7-26,73.5,69.8,65.8,70.5,65.4,60.1,96,86,73,29.95,29.83,4,0,4,0.12
2013-7-27,77.6,67.9,57.0,68.1,59.2,53.1,98,77,44,29.89,29.83,6,0,8,0.01
2013-7-28,82.2,66.6,52.7,59.5,55.2,49.6,97,71,36,29.94,29.87,8,0,8,0.00
2013-7-29,74.2,67.5,58.0,66.9,63.1,57.1,97,86,70,30.04,29.93,5,0,5,0.00
2013-7-30,73.5,69.9,65.0,71.7,67.8,63.0,99,94,77,30.00,29.87,7,0,7,0.52
2013-7-31,83.5,73.6,65.9,74.4,70.3,64.9,100,90,67,29.93,29.86,5,0,6,0.00
2013-8-1,88.5,73.3,63.3,69.8,64.2,56.2,99,77,38,29.96,29.86,5,0,6,0.00
2013-8-2,82.2,72.8,65.6,72.7,68.8,62.7,99,88,67,29.88,29.79,5,0,8,0.13
2013-8-3,87.5,75.4,67.3,73.8,69.9,64.0,100,85,60,29.99,29.80,5,0,6,0.00
2013-8-4,79.8,71.0,62.1,66.4,62.6,59.1,97,76,51,30.05,29.95,6,0,6,0.00
2013-8-5,72.7,70.1,65.5,69.6,65.5,62.0,95,86,77,29.97,29.76,8,0,8,0.00
2013-8-6,88.1,77.2,69.9,74.3,71.7,69.2,99,85,58,29.81,29.72,6,0,6,0.00
2013-8-7,91.2,78.6,71.7,75.2,71.9,66.8,98,82,50,29.79,29.68,14,0,14,0.01
2013-8-8,81.6,76.8,71.9,75.9,73.2,70.9,97,89,82,29.84,29.75,4,0,4,0.00
2013-8-9,81.2,73.8,68.7,73.2,70.0,67.1,99,88,71,29.94,29.82,3,0,3,0.00
2013-8-10,87.6,75.6,66.7,71.3,66.7,60.8,97,76,44,30.01,29.93,5,0,5,0.00
2013-8-11,88.4,73.5,60.2,65.1,61.3,56.9,97,69,37,30.03,29.91,4,0,5,0.00
2013-8-12,79.7,73.2,68.5,76.0,69.4,62.1,98,88,72,29.95,29.78,4,0,4,0.05
2013-8-13,80.7,71.8,64.5,68.3,64.3,53.0,99,79,56,30.00,29.83,6,0,6,0.01
2013-8-14,75.6,61.0,53.9,56.1,53.8,50.3,95,78,43,30.08,30.00,4,0,5,0.00
2013-8-15,77.3,64.4,54.8,58.3,54.9,51.7,97,74,46,30.06,29.95,5,0,5,0.00
2013-8-16,77.3,65.6,55.4,60.0,57.0,54.1,96,76,48,30.03,29.97,5,0,5,0.00
2013-8-17,82.3,68.7,57.1,63.1,60.0,55.9,97,76,50,30.06,29.97,6,0,6,0.00
2013-8-18,84.9,71.9,63.1,65.6,63.4,61.3,95,77,49,30.06,29.94,6,0,6,0.00
2013-8-19,87.5,73.5,61.9,70.1,64.9,61.0,98,77,49,30.01,29.90,6,0,6,0.00
2013-8-20,88.1,75.3,64.6,70.8,66.5,63.7,98,77,46,29.99,29.90,5,0,5,0.00
2013-8-21,91.7,77.6,66.4,71.0,67.5,64.7,98,74,44,30.01,29.90,9,0,9,0.00
2013-8-22,91.0,79.7,68.7,74.0,70.8,67.0,95,76,53,29.98,29.88,7,0,7,0.00
2013-8-23,90.8,79.6,71.8,75.8,71.2,67.2,97,77,49,29.98,29.90,6,0,6,0.00
2013-8-24,92.8,78.8,66.7,71.5,68.2,65.6,98,73,44,30.08,29.97,7,0,7,0.00
2013-8-25,93.5,79.2,65.6,73.3,67.8,63.3,97,71,39,30.14,30.02,7,0,7,0.00
2013-8-26,95.3,82.1,72.6,76.4,72.8,68.5,97,76,45,30.09,29.93,8,0,8,0.00
2013-8-27,97.0,82.1,71.7,75.4,70.7,66.9,95,71,40,29.96,29.85,9,0,9,0.00
2013-8-28,96.8,81.4,68.5,71.4,68.1,64.6,96,68,38,29.92,29.84,8,0,8,0.00
2013-8-29,98.2,83.4,71.1,75.4,71.6,68.3,94,70,41,29.92,29.81,6,0,6,0.00
2013-8-30,101.8,85.3,72.8,76.1,72.8,68.7,94,70,36,29.84,29.69,8,0,8,0.00
2013-8-31,101.9,87.6,75.5,75.8,72.5,68.5,91,64,36,29.72,29.58,11,0,11,0.00
2013-9-1,93.5,81.9,74.2,75.8,72.4,68.7,92,74,53,29.71,29.63,10,0,10,0.00
2013-9-2,87.9,76.9,69.1,71.7,63.8,60.8,91,65,43,29.83,29.71,10,0,10,0.00
2013-9-3,86.0,70.9,58.6,63.1,59.2,56.0,95,69,37,29.96,29.83,7,0,7,0.00
2013-9-4,89.3,72.0,58.6,64.1,60.0,56.4,96,70,35,30.04,29.95,1,0,1,0.00
2013-9-5,90.2,73.1,60.1,66.9,61.7,57.8,96,71,37,30.08,30.00,1,0,1,0.00
2013-9-6,89.8,75.5,63.7,68.1,64.4,60.8,96,72,41,30.06,29.90,2,0,2,0.00
2013-9-7,95.5,78.1,63.1,69.7,65.0,61.2,96,68,33,29.93,29.78,3,0,3,0.00
2013-9-8,84.7,76.3,71.2,76.1,70.9,66.7,98,84,70,29.90,29.77,2,0,2,0.26
2013-9-9,100.3,79.1,72.2,75.1,71.0,65.6,97,80,36,29.84,29.77,2,0,2,0.00
2013-9-10,99.8,83.3,71.8,72.9,68.0,61.3,93,65,29,29.96,29.84,8,0,8,0.00
2013-9-11,97.9,82.6,69.7,71.6,67.6,63.3,91,64,34,30.00,29.89,3,0,3,0.00
2013-9-12,86.7,78.0,68.3,70.6,64.5,51.1,94,65,42,29.96,29.84,2,0,2,0.04
2013-9-13,77.8,66.5,56.0,57.0,51.6,44.1,83,60,40,30.01,29.93,2,0,2,0.00
2013-9-14,77.8,63.2,49.3,51.2,46.6,39.8,93,59,28,30.06,29.91,1,0,1,0.00
2013-9-15,83.8,68.5,54.8,65.5,55.9,47.4,87,66,44,29.99,29.86,4,0,4,0.00
2013-9-16,73.5,65.6,60.9,65.4,58.7,55.0,91,79,60,30.15,29.98,0,0,0,0.00
2013-9-17,73.0,65.2,60.1,65.8,59.9,55.0,93,83,71,30.12,29.95,0,0,0,0.01
2013-9-18,89.0,72.4,64.9,76.0,68.7,62.5,98,89,56,29.95,29.83,7,0,7,0.59
2013-9-19,92.6,79.3,71.0,76.9,71.9,69.4,97,80,52,29.88,29.73,4,0,4,0.00
2013-9-20,77.5,68.2,58.0,72.5,66.9,57.2,99,96,79,29.81,29.75,2,0,2,0.51
2013-9-21,74.0,60.4,51.6,57.1,53.2,50.6,99,80,48,29.86,29.79,0,0,0,0.01
2013-9-22,77.3,60.8,48.5,57.7,52.2,47.6,98,77,43,29.91,29.81,0,0,0,0.00
2013-9-23,79.0,63.5,50.4,56.0,52.5,49.6,98,71,42,29.92,29.80,3,0,3,0.00
2013-9-24,81.6,67.7,54.8,67.3,59.9,52.1,93,78,54,29.84,29.66,9,0,9,0.00
2013-9-25,84.0,71.2,63.7,67.4,64.7,61.9,96,82,54,29.75,29.66,4,0,4,0.00
2013-9-26,85.3,71.1,60.3,68.7,62.3,59.5,98,76,49,29.89,29.75,8,0,8,0.00
2013-9-27,66.8,62.4,60.3,60.5,59.6,58.8,96,90,81,29.94,29.89,0,0,0,0.00
2013-9-29,75.6,65.0,55.7,68.8,56.5,51.3,97,76,44,29.95,29.85,0,0,5,0.02
2013-9-30,78.6,63.6,50.7,65.4,58.4,49.6,97,85,60,29.88,29.77,1,0,7,0.00
2013-10-1,81.4,70.6,62.5,70.5,66.8,61.6,98,88,69,29.91,29.83,1,0,7,0.00
2013-10-2,84.5,72.8,67.0,71.9,68.7,66.4,99,88,62,29.94,29.84,1,0,6,0.00
2013-10-3,85.8,75.9,67.3,72.4,69.1,65.7,96,81,59,29.85,29.75,2,1,15,0.00
2013-10-4,86.7,76.6,68.0,72.1,69.8,66.8,97,81,58,29.86,29.77,2,0,10,0.00
2013-10-5,76.7,65.7,54.7,71.7,63.2,52.9,97,92,72,29.83,29.73,5,0,11,0.13
2013-10-6,59.9,53.6,47.7,53.5,45.7,40.7,97,76,54,29.81,29.74,18,1,18,0.00
2013-10-7,71.5,57.3,50.3,50.6,48.1,46.6,91,73,44,30.03,29.80,9,0,9,0.00
2013-10-8,76.0,59.2,46.4,56.9,49.1,45.3,97,73,41,30.10,30.01,9,0,9,0.00
2013-10-9,77.3,64.6,46.0,55.7,53.1,44.7,96,69,46,30.08,29.97,6,0,6,0.00
2013-10-10,80.3,65.2,53.5,64.4,57.9,52.4,97,80,50,30.04,29.88,8,0,8,0.00
2013-10-11,79.7,66.2,55.0,63.5,58.2,54.1,97,78,45,29.93,29.78,12,0,12,0.00
2013-10-12,79.3,66.2,55.5,65.8,58.4,47.3,97,77,53,30.08,29.81,6,0,6,0.01
2013-10-13,75.0,59.3,45.8,48.8,43.1,37.6,93,60,27,30.27,30.08,2,0,7,0.00
2013-10-14,67.0,58.3,47.1,55.6,45.8,37.8,78,64,49,30.23,29.94,7,0,7,0.00
2013-10-15,68.0,62.7,55.8,65.3,59.5,51.6,98,89,77,29.95,29.78,9,0,9,0.28
2013-10-16,55.8,52.9,50.2,51.6,48.0,44.8,87,84,79,29.90,29.85,4,0,4,0.00
2013-10-23,51.0,43.3,37.0,37.2,34.2,28.7,91,72,45,30.04,29.90,1,0,9,0.01
2013-10-24,50.5,41.0,30.8,38.0,30.4,25.2,95,69,41,30.32,30.03,2,0,14,0.00
2013-10-25,54.9,39.8,26.9,34.0,29.2,25.4,94,70,37,30.43,30.13,1,0,6,0.00
2013-10-26,65.9,51.0,39.0,45.1,36.3,30.4,76,58,40,30.12,29.91,2,0,13,0.00
2013-10-27,60.6,44.2,30.8,35.8,32.3,29.1,95,67,33,30.04,29.92,1,0,6,0.00
2013-10-28,68.4,50.0,33.9,50.0,40.4,32.4,95,73,41,30.13,29.95,1,0,7,0.00
2013-10-29,57.9,54.6,45.2,57.3,52.4,40.3,98,93,69,30.14,29.95,5,0,10,0.24
2013-10-30,72.8,64.4,55.8,67.8,62.1,55.5,100,93,79,29.95,29.71,10,0,10,0.05
2013-10-31,66.3,60.5,47.8,65.4,59.3,46.0,99,96,89,29.72,29.27,11,1,11,0.84
2013-11-1,64.5,52.9,46.5,49.7,45.3,41.0,96,78,48,29.76,29.53,19,1,19,0.01
2013-11-2,56.8,46.7,37.2,43.4,40.3,35.8,95,80,51,30.09,29.75,7,0,10,0.00
2013-11-3,58.4,45.5,31.9,44.7,35.7,30.9,97,72,42,30.22,30.05,11,0,11,0.00
2013-11-4,59.8,52.1,46.3,47.5,42.4,37.0,75,69,59,30.13,30.01,10,1,13,0.00
2013-11-5,59.7,55.3,51.2,54.1,51.0,46.7,97,86,74,30.16,29.89,13,1,13,0.02
2013-11-6,58.7,48.8,36.3,57.8,46.4,33.8,97,91,82,30.17,29.80,13,1,13,0.34
2013-11-7,56.4,41.4,30.9,41.8,35.0,29.1,97,80,49,30.31,30.17,9,0,9,0.00
2013-11-8,58.8,45.1,29.3,40.4,33.6,28.3,97,68,36,30.28,29.99,16,2,16,0.00
2013-11-9,68.3,54.0,44.2,43.2,39.5,36.4,80,60,36,30.13,29.96,11,1,11,0.00
2013-11-10,56.9,46.3,38.2,38.5,33.4,29.4,82,63,38,30.32,30.13,6,0,6,0.00
2013-11-11,69.9,49.1,33.9,49.2,38.9,30.8,92,69,45,30.39,30.01,16,1,16,0.06
2013-11-12,37.6,29.9,22.1,30.9,20.3,16.0,90,68,45,30.68,30.39,13,1,13,0.00
2013-11-13,46.9,36.3,18.9,23.1,18.2,13.7,93,52,27,30.62,30.23,10,1,10,0.00
2013-11-14,59.0,48.9,28.3,28.0,22.3,15.5,72,37,19,30.23,29.95,12,2,12,0.00
2013-11-15,58.9,50.3,45.6,44.2,34.6,26.4,85,56,38,29.97,29.83,11,1,11,0.00
2013-11-16,66.0,58.1,48.4,61.0,53.7,44.2,95,85,78,29.83,29.51,16,3,16,0.08
2013-11-17,81.3,66.1,49.7,66.4,49.6,22.4,96,61,20,29.87,29.26,30,3,30,0.02
2013-11-18,49.6,45.8,42.3,40.1,39.2,37.8,84,78,70,29.92,29.87,1,0,2,0.00
2013-11-19,48.1,41.1,30.2,31.4,29.0,27.6,92,63,47,30.27,30.12,8,0,8,0.00
2013-11-20,49.7,40.8,34.2,41.8,34.7,27.8,91,79,70,30.13,29.94,11,1,11,0.09
2013-11-21,50.5,49.4,47.7,49.7,46.7,41.2,97,91,76,30.09,29.98,8,0,8,0.01
2013-11-22,50.5,39.3,35.0,49.7,36.7,30.6,97,90,83,30.44,30.09,12,1,12,0.00
2013-11-23,34.9,29.3,20.3,30.8,20.1,11.1,88,69,47,30.65,30.42,12,2,12,0.00
2013-11-24,29.7,22.8,14.4,13.8,10.4,5.8,83,60,36,30.68,30.38,1,0,7,0.00
2013-11-25,36.8,32.3,26.7,25.4,19.5,14.3,69,59,47,30.37,30.07,2,1,8,0.00
2013-11-26,41.3,33.4,24.8,29.8,23.5,12.2,81,67,55,30.17,30.00,4,1,16,0.00
2013-11-27,30.6,22.3,18.3,13.0,11.5,9.2,73,63,44,30.29,30.17,5,1,12,0.00
2013-11-28,48.4,33.4,21.8,26.3,19.6,11.7,70,58,40,30.41,30.17,10,1,10,0.00
2013-11-29,45.5,34.1,21.1,30.7,24.4,17.8,88,69,49,30.51,30.28,11,1,11,0.00
2013-11-30,60.2,44.0,30.9,39.5,34.0,27.9,90,70,46,30.28,29.99,10,1,10,0.00
2013-12-1,58.7,45.4,34.2,42.8,37.7,32.8,96,76,53,30.03,29.79,5,0,5,0.00
2013-12-2,58.9,47.1,38.3,47.1,41.4,34.6,94,81,64,29.79,29.58,8,0,8,0.00
2013-12-3,60.2,52.1,45.5,53.4,49.4,43.9,96,91,76,29.60,29.52,13,1,13,0.00
2013-12-4,67.5,55.3,41.4,57.0,50.4,35.1,98,85,65,29.76,29.42,15,2,15,0.00
2013-12-5,41.4,28.4,22.1,35.0,22.0,16.2,88,77,66,30.22,29.76,12,1,12,0.00
2013-12-6,23.4,20.8,15.9,18.9,13.2,5.6,87,72,60,30.52,30.19,11,1,11,0.00
2013-12-7,24.3,18.1,11.0,11.5,8.1,5.0,77,65,52,30.64,30.38,8,1,11,0.04
2013-12-8,27.5,23.6,19.9,25.8,20.4,11.4,93,87,64,30.38,29.94,9,1,9,0.00
2013-12-9,28.1,24.8,21.8,26.1,17.7,13.1,93,74,65,30.26,30.02,10,1,10,0.00
2013-12-10,37.9,26.0,15.7,19.5,15.3,10.5,81,65,44,30.24,30.17,10,1,10,0.04
2013-12-11,34.4,23.8,13.4,24.4,14.7,2.6,88,69,53,30.58,30.22,15,1,15,0.01
2013-12-12,39.6,23.8,8.6,18.1,11.1,2.1,81,60,35,30.58,30.19,8,1,8,0.00
2013-12-13,34.2,29.9,23.0,32.1,24.5,16.1,94,81,60,30.19,29.86,10,1,10,0.27
2013-12-14,34.4,31.6,27.3,33.0,29.8,24.8,95,93,90,30.07,29.75,15,1,15,0.12
2013-12-15,36.6,29.7,24.3,30.6,25.5,20.8,91,84,73,30.12,29.94,11,1,11,0.18
2013-12-16,44.7,33.9,27.2,34.0,29.3,24.9,93,84,66,30.05,29.90,6,0,6,0.06
2013-12-17,44.9,33.6,26.0,32.6,26.3,20.4,93,76,57,30.20,30.03,12,0,12,0.00
2013-12-18,54.2,38.8,23.1,39.0,26.3,17.9,87,63,36,30.19,29.85,14,2,14,0.00
2013-12-19,60.6,51.4,42.0,50.6,44.9,37.9,87,79,66,29.85,29.68,15,2,15,0.00
2013-12-20,70.2,53.6,37.5,59.5,48.7,35.3,92,84,69,29.76,29.58,14,2,14,0.16
2013-12-21,37.5,33.9,32.5,35.4,32.5,31.2,95,94,92,29.76,29.48,12,1,12,0.88
2013-12-22,34.9,32.5,28.3,33.7,30.3,24.4,96,92,85,30.20,29.57,13,1,13,0.10
2013-12-23,28.4,22.2,12.1,25.0,16.8,6.6,87,79,69,30.52,30.20,12,1,12,0.00
2013-12-24,23.1,15.9,5.8,13.4,5.2,-1.3,80,64,37,30.57,30.28,14,2,14,0.00
2013-12-25,37.2,30.7,22.0,30.1,24.3,13.3,86,77,69,30.30,30.16,8,1,9,0.00
2013-12-26,50.9,36.8,24.1,32.8,25.0,20.8,94,66,32,30.30,30.16,8,0,8,0.00
2013-12-27,57.2,40.2,27.5,34.5,29.0,23.2,89,66,36,30.30,30.15,5,0,7,0.00
2013-12-28,60.4,45.1,29.7,34.1,30.0,26.0,87,58,31,30.16,29.81,11,1,11,0.00
2013-12-29,42.9,30.4,17.7,31.9,23.2,7.5,84,74,63,30.19,29.76,15,1,15,0.00
2013-12-30,27.5,20.1,10.7,14.5,6.4,0.6,71,56,37,30.29,30.15,5,0,8,0.00
2013-12-31,43.9,34.4,22.7,26.2,20.4,14.2,77,57,45,30.34,30.08,14,1,14,0.00
2014-1-1,47.9,37.0,24.9,31.6,27.2,22.1,89,69,52,30.08,29.91,9,1,9,0.00
2014-1-2,24.9,19.3,16.2,22.1,15.7,11.8,89,86,79,30.20,29.97,15,2,15,0.00